User: anonymous   Login
Location: Unspecified
(0.0000°N, 0.0000°E)
Time: 20:14:41
(UTC+00:00)
Language:

LANDSAT 8 - Orbit

View from above orbital plane
View from above orbital plane
View from above satellite
View from above satellite

Ground track
Ground track

The orbit data is extracted from the following two-line orbital elements,

1 39084U 13008A   16150.77612242 +.00000075 +00000-0 +26658-4 0  9993
2 39084 098.2247 220.7089 0001318 091.3584 268.7765 14.57106509163390
Epoch (UTC): 29 May 2016 18:37:36
Eccentricity: 0.0001318
inclination: 98.2247°
perigee height: 701 km
apogee height: 703 km
right ascension of ascending node: 220.7089°
argument of perigee: 91.3584°
revolutions per day: 14.57106509
mean anomaly at epoch: 268.7765°
orbit number at epoch: 16339

The dashed part of the orbit path shows where the satellite is in the earth's shadow,  

DLR